Regional Weather Roundup
Issued by NWS

Home | Current Version | Previous Version | Graphics & Text | Print | Product List | Glossary On
Versions: 1 2 3 4 5 6 7 8 9 10 11 12 13 14 15 16 17 18 19 20 21 22 23 24 25 26 27 28 29 30 31 32 33 34 35 36 37 38 39 40 41 42 43 44 45 46 47 48 49 50
000
ASUS43 KIND 211759
RWRIN

WEATHER ROUNDUP FOR INDIANA
NATIONAL WEATHER SERVICE INDIANAPOLIS IN
200 PM EDT THU AUG 21 2014

NOTE: "FAIR" INDICATES FEW OR NO CLOUDS BELOW 12,000 FEET WITH NO
SIGNIFICANT WEATHER AND/OR OBSTRUCTIONS TO VISIBILITY.

* - STATION DOES NOT REPORT WEATHER SUCH AS PRECIPITATION OR FOG.

+ - STATION NOT QUALITY CONTROLLED BY THE NATIONAL WEATHER SERVICE.
    USE DATA WITH CAUTION...ESPECIALLY DEWPOINT AND RELATIVE
    HUMIDITY OBSERVATIONS.

INZ001>003-010>013-019-020-211900-
NORTHWEST INDIANA

CITY           SKY/WX    TMP DP  RH WIND       PRES   REMARKS
GARY /AIRPORT/ CLOUDY    79  73  83 SW12      29.97R
KNOX *+        CLOUDY    75  71  87 S7        29.98S
MONTICELLO +   CLOUDY    78  73  84 S8        29.98F
RENSSELAER +   CLOUDY    81  75  83 S9        29.98F
VALPARAISO     CLOUDY    77  71  82 S9        29.98S
6HR MIN TEMP:  69; 6HR MAX TEMP:  77; 6HR PCP:  0.28;


$$

LMZ046-743>745-211900-
SOUTHERN LAKE MICHIGAN

STATION/POSITION TIME  TEMP WIND        PRES
                       AIR  DIR/SP/G
                 (UTC) (F)  (DEG/KT/KT) (MB)
MICHIGAN CITY    1700   74  180/  7/  9   N/A

$$

INZ004-005-014>016-021>024-211900-
NORTH CENTRAL INDIANA

CITY           SKY/WX    TMP DP  RH WIND       PRES   REMARKS
ELKHART        CLOUDY    77  70  78 SW8       30.00R
GOSHEN         CLOUDY    76  70  82 S13       30.00R
6HR MIN TEMP:  71; 6HR MAX TEMP:  77; 6HR PCP: TRACE;

SOUTH BEND     CLOUDY    76  69  79 S9        30.00R
6HR MIN TEMP:  71; 6HR MAX TEMP:  77;

WARSAW +       CLOUDY    73  72  94 SW6       30.00S

$$

INZ006>009-017-018-025>027-211900-
NORTHEAST INDIANA

CITY           SKY/WX    TMP DP  RH WIND       PRES   REMARKS
ANGOLA *+      MOSUNNY   79  70  73 S6        29.99R
FORT WAYNE     CLOUDY    72  70  93 S10       30.01S
6HR MIN TEMP:  71; 6HR MAX TEMP:  74; 6HR PCP:  0.20;


$$

INZ028-029-035-036-043>045-051>053-211900-
WEST CENTRAL INDIANA

CITY           SKY/WX    TMP DP  RH WIND       PRES   REMARKS
GREENCASTLE +  PTSUNNY   81  73  78 W5        30.04F
LAFAYETTE      CLOUDY    81  72  74 S9        29.99F
6HR MIN TEMP:  70; 6HR MAX TEMP:  81; 6HR PCP:  0.10;

TERRE HAUTE    CLOUDY    85  73  67 SW7       30.02F
6HR MIN TEMP:  68; 6HR MAX TEMP:  86;


$$

INZ030>032-037>040-046>048-054>057-064-065-211900-
CENTRAL INDIANA

CITY           SKY/WX    TMP DP  RH WIND       PRES   REMARKS
COLUMBUS       PTSUNNY   84  75  74 SW6       30.05F
FRANKFORT +    PTSUNNY   82  73  76 S3        30.03F
INDIANAPOLIS   PTSUNNY   82  71  69 SW6       30.04F
6HR MIN TEMP:  70; 6HR MAX TEMP:  82; 6HR PCP:  0.07;

-EAGLE CREEK   PTSUNNY   83  71  67 S7        30.03F
6HR MIN TEMP:  69; 6HR MAX TEMP:  83; 6HR PCP:  0.16;

KOKOMO *+      CLOUDY    73  70  88 S14       30.02F
MT COMFORT *+  CLOUDY    79  75  89 S7        30.06S
SHELBYVILLE    CLOUDY    80  73  79 VRB3      30.05F
6HR MIN TEMP:  72; 6HR MAX TEMP:  80; 6HR PCP:  0.43;


$$

INZ033-034-041-042-049-050-058-059-211900-
EAST CENTRAL INDIANA

CITY           SKY/WX    TMP DP  RH WIND       PRES   REMARKS
MUNCIE         RAIN      72  68  87 S8        30.05F FOG
6HR MIN TEMP:  69; 6HR MAX TEMP:  73; 6HR PCP:  2.69;


$$

INZ060-061-067>069-081>083-085>088-211900-
SOUTHWEST INDIANA

CITY           SKY/WX    TMP DP  RH WIND       PRES   REMARKS
EVANSVILLE     MOSUNNY   89  73  59 W7        30.06F HX  97
6HR MIN TEMP:  74; 6HR MAX TEMP:  89;


$$

INZ062-063-066-070>080-084-089>092-211900-
SOUTH CENTRAL AND SOUTHEAST INDIANA

CITY           SKY/WX    TMP DP  RH WIND       PRES   REMARKS
BLOOMINGTON    PTSUNNY   83  74  74 SW5       30.06S
6HR MIN TEMP:  70; 6HR MAX TEMP:  84;


$$




USA.gov is the U.S. government's official web portal to all federal, state and local government web resources and services.